Terug naar catalogus

COSMOS 926 DEB

ActiefPO
NORAD 13475·DEBRIS·🇷🇺 Russia

Gelanceerd Jul 8, 1977 vanaf Plesetsk Cosmodrome

Loading…

Volgende Passages (komende 24 uur)

TLE

VerouderdSource: Space-Track

Epoch: Jan 26, 1994, 13:23 UTC

1 13475U 77062C   94026.55792019 -.00007384 +00000-0 -75706-2 0  9992
2 13475 082.9538 074.8498 0043319 029.3774 327.9200 13.76116993680406

Volg COSMOS 926 DEB in realtime met AllMySat

Download on the App Store